This is the latest recevied weather packets stored in our database for station/object KQ4DLB-13. If no packets are shown the sender has not sent any weather packets the latest 10 day(s).
| Time | Temp. | Humidity | Pressure | Rain* | Wind** | Luminosity | Snow |
|---|---|---|---|---|---|---|---|
| 1777645802 | 15° C | 60% | 991.2 hPa | 0 mm | - | 322 W/m² | - |
| 1777645502 | 15° C | 59% | 991.1 hPa | 0 mm | - | 138 W/m² | - |
| 1777645202 | 15° C | 59% | 991 hPa | 0 mm | - | 246 W/m² | - |
| 1777644902 | 15.56° C | 61% | 991.1 hPa | 0 mm | - | 388 W/m² | - |
| 1777644602 | 15° C | 56% | 991.1 hPa | 0 mm | - | 399 W/m² | - |
| 1777644302 | 15° C | 55% | 991.2 hPa | 0 mm | - | 396 W/m² | - |
| 1777644002 | 15° C | 59% | 991.3 hPa | 0 mm | - | 414 W/m² | - |
| 1777643702 | 14.44° C | 63% | 991.5 hPa | 0 mm | - | 400 W/m² | - |
| 1777643402 | 13.89° C | 69% | 991.5 hPa | 0 mm | - | 395 W/m² | - |
| 1777643102 | 13.33° C | 78% | 991.6 hPa | 0 mm | - | 398 W/m² | - |
| 1777642802 | 12.78° C | 82% | 991.7 hPa | 0 mm | - | 408 W/m² | - |
| 1777642502 | 11.67° C | 88% | 991.7 hPa | 0 mm | - | 378 W/m² | - |
| 1777642202 | 11.11° C | 95% | 991.7 hPa | 0 mm | - | 354 W/m² | - |
| 1777641902 | 10.56° C | 97% | 991.5 hPa | 0 mm | - | 211 W/m² | - |
| 1777641602 | 10° C | 98% | 991.3 hPa | 0 mm | - | - | - |
| 1777641302 | 10° C | 98% | 991.4 hPa | 0 mm | - | - | - |
| 1777641002 | 9.44° C | 99% | 991.3 hPa | 0 mm | - | - | - |
| 1777640702 | 8.89° C | 99% | 991.3 hPa | 0 mm | - | - | - |
| 1777640402 | 8.33° C | 99% | 991.3 hPa | 0 mm | - | - | - |
| 1777640102 | 8.33° C | 99% | 991.2 hPa | 0 mm | - | - | - |
| 1777639802 | 7.78° C | 99% | 991.2 hPa | 0 mm | - | - | - |
| 1777639502 | 7.22° C | 99% | 991.2 hPa | 0 mm | - | - | - |
| 1777639202 | 7.22° C | 99% | 991.1 hPa | 0 mm | - | - | - |
| 1777638902 | 6.67° C | 99% | 991.1 hPa | 0 mm | - | - | - |
| 1777638602 | 6.67° C | 99% | 991 hPa | 0 mm | - | - | - |
* Rain latest hour (hover to see other rain measurements)
** Current wind speed in m/s (hover to see current wind gust speed)